owner,sensor,date,latitude,longitude,air_pressure(mBar),qcFlag 
TABS,ioos:station:wmo:42045:1,2007-12-03T19:00:00Z,26.2168,-96.4998,9999.0,11144222 
TABS,ioos:station:wmo:42045:1,2007-12-03T19:30:00Z,26.2168,-96.4998,9999.0,11144222 
TABS,ioos:station:wmo:42045:1,2007-12-03T20:00:00Z,26.2168,-96.4998,9999.0,11144222 
TABS,ioos:station:wmo:42045:1,2007-12-03T20:30:00Z,26.2168,-96.4998,9999.0,11144222 
TABS,ioos:station:wmo:42045:1,2007-12-03T21:00:00Z,26.2168,-96.4998,9999.0,11144222 
TABS,ioos:station:wmo:42045:1,2007-12-03T21:30:00Z,26.2168,-96.4998,9999.0,11144222 
TABS,ioos:station:wmo:42045:1,2007-12-03T22:00:00Z,26.2168,-96.4998,9999.0,11144222 
TABS,ioos:station:wmo:42045:1,2007-12-03T22:30:00Z,26.2168,-96.4998,9999.0,11144222 
TABS,ioos:station:wmo:42045:1,2007-12-03T23:00:00Z,26.2168,-96.4998,9999.0,11144222 
TABS,ioos:station:wmo:42045:1,2007-12-03T23:30:00Z,26.2168,-96.4998,9999.0,11144222 
TABS,ioos:station:wmo:42045:1,2007-12-04T00:00:00Z,26.2168,-96.4998,9999.0,11144222 
TABS,ioos:station:wmo:42045:1,2007-12-04T00:30:00Z,26.2168,-96.4998,9999.0,11144222 
TABS,ioos:station:wmo:42045:1,2007-12-04T01:00:00Z,26.2168,-96.4998,9999.0,11144222 
TABS,ioos:station:wmo:42045:1,2007-12-04T01:30:00Z,26.2168,-96.4998,9999.0,11144222 
TABS,ioos:station:wmo:42045:1,2007-12-04T02:00:00Z,26.2168,-96.4998,9999.0,11144222 
TABS,ioos:station:wmo:42045:1,2007-12-04T02:30:00Z,26.2168,-96.4998,9999.0,11144222 
TABS,ioos:station:wmo:42045:1,2007-12-04T03:00:00Z,26.2168,-96.4998,9999.0,11144222 
TABS,ioos:station:wmo:42045:1,2007-12-04T03:30:00Z,26.2168,-96.4998,9999.0,11144222 
TABS,ioos:station:wmo:42045:1,2007-12-04T04:00:00Z,26.2168,-96.4998,9999.0,11144222 
TABS,ioos:station:wmo:42045:1,2007-12-04T04:30:00Z,26.2168,-96.4998,9999.0,11144222 
TABS,ioos:station:wmo:42045:1,2007-12-04T05:00:00Z,26.2168,-96.4998,9999.0,11144222 
TABS,ioos:station:wmo:42045:1,2007-12-04T05:30:00Z,26.2168,-96.4998,9999.0,11144222 
TABS,ioos:station:wmo:42045:1,2007-12-04T06:00:00Z,26.2168,-96.4998,9999.0,11144222 
TABS,ioos:station:wmo:42045:1,2007-12-04T06:30:00Z,26.2168,-96.4998,9999.0,11144222 
TABS,ioos:station:wmo:42045:1,2007-12-04T07:00:00Z,26.2168,-96.4998,9999.0,11144222 
TABS,ioos:station:wmo:42045:1,2007-12-04T07:30:00Z,26.2168,-96.4998,9999.0,11144222 
TABS,ioos:station:wmo:42045:1,2007-12-04T08:00:00Z,26.2168,-96.4998,9999.0,11144222 
TABS,ioos:station:wmo:42045:1,2007-12-04T08:30:00Z,26.2168,-96.4998,9999.0,11144222 
TABS,ioos:station:wmo:42045:1,2007-12-04T09:00:00Z,26.2168,-96.4998,9999.0,11144222 
TABS,ioos:station:wmo:42045:1,2007-12-04T09:30:00Z,26.2168,-96.4998,9999.0,11144222 
TABS,ioos:station:wmo:42045:1,2007-12-04T10:00:00Z,26.2168,-96.4998,9999.0,11144222 
TABS,ioos:station:wmo:42045:1,2007-12-04T10:30:00Z,26.2168,-96.4998,9999.0,11144222 
TABS,ioos:station:wmo:42045:1,2007-12-04T11:00:00Z,26.2168,-96.4998,9999.0,11144222 
TABS,ioos:station:wmo:42045:1,2007-12-04T11:30:00Z,26.2168,-96.4998,9999.0,11144222 
TABS,ioos:station:wmo:42045:1,2007-12-04T12:00:00Z,26.2168,-96.4998,9999.0,11144222 
TABS,ioos:station:wmo:42045:1,2007-12-04T12:30:00Z,26.2168,-96.4998,9999.0,11144222 
TABS,ioos:station:wmo:42045:1,2007-12-04T13:00:00Z,26.2168,-96.4998,9999.0,11144222 
TABS,ioos:station:wmo:42045:1,2007-12-04T13:30:00Z,26.2168,-96.4998,9999.0,11144222 
TABS,ioos:station:wmo:42045:1,2007-12-04T14:00:00Z,26.2168,-96.4998,9999.0,11144222 
TABS,ioos:station:wmo:42045:1,2007-12-04T14:30:00Z,26.2168,-96.4998,9999.0,11144222 
TABS,ioos:station:wmo:42045:1,2007-12-04T15:00:00Z,26.2168,-96.4998,9999.0,11144222 
TABS,ioos:station:wmo:42045:1,2007-12-04T15:30:00Z,26.2168,-96.4998,9999.0,11144222 
TABS,ioos:station:wmo:42045:1,2007-12-04T16:00:00Z,26.2168,-96.4998,9999.0,11144222 
TABS,ioos:station:wmo:42045:1,2007-12-04T16:30:00Z,26.2168,-96.4998,9999.0,11144222 
TABS,ioos:station:wmo:42045:1,2007-12-04T17:00:00Z,26.2168,-96.4998,9999.0,11144222 
TABS,ioos:station:wmo:42045:1,2007-12-04T17:30:00Z,26.2168,-96.4998,9999.0,11144222 
TABS,ioos:station:wmo:42045:1,2007-12-04T18:00:00Z,26.2168,-96.4998,9999.0,11144222 
TABS,ioos:station:wmo:42045:1,2007-12-04T18:30:00Z,26.2168,-96.4998,9999.0,11144222 
TABS,ioos:station:wmo:42045:1,2007-12-04T19:00:00Z,26.2168,-96.4998,9999.0,11144222 
TABS,ioos:station:wmo:42045:1,2007-12-04T19:30:00Z,26.2168,-96.4998,9999.0,11144222 
TABS,ioos:station:wmo:42045:1,2007-12-04T20:00:00Z,26.2168,-96.4998,9999.0,11144222 
TABS,ioos:station:wmo:42045:1,2007-12-04T20:30:00Z,26.2168,-96.4998,9999.0,11144222 
TABS,ioos:station:wmo:42045:1,2007-12-04T21:00:00Z,26.2168,-96.4998,9999.0,11144222 
TABS,ioos:station:wmo:42045:1,2007-12-04T21:30:00Z,26.2168,-96.4998,9999.0,11144222 
TABS,ioos:station:wmo:42045:1,2007-12-04T22:00:00Z,26.2168,-96.4998,9999.0,11144222 
TABS,ioos:station:wmo:42045:1,2007-12-04T22:30:00Z,26.2168,-96.4998,9999.0,11144222 
TABS,ioos:station:wmo:42045:1,2007-12-04T23:00:00Z,26.2168,-96.4998,9999.0,11144222 
TABS,ioos:station:wmo:42045:1,2007-12-04T23:30:00Z,26.2168,-96.4998,9999.0,11144222 
TABS,ioos:station:wmo:42045:1,2007-12-06T00:00:00Z,26.2168,-96.4998,1012.62,11111222 
TABS,ioos:station:wmo:42045:1,2007-12-06T00:30:00Z,26.2168,-96.4998,1013.03,11111222 
TABS,ioos:station:wmo:42045:1,2007-12-06T01:00:00Z,26.2168,-96.4998,1013.43,11111222 
TABS,ioos:station:wmo:42045:1,2007-12-06T01:30:00Z,26.2168,-96.4998,1013.75,11111222 
TABS,ioos:station:wmo:42045:1,2007-12-06T02:00:00Z,26.2168,-96.4998,1013.98,11111222 
TABS,ioos:station:wmo:42045:1,2007-12-06T02:30:00Z,26.2168,-96.4998,1014.14,11111222 
TABS,ioos:station:wmo:42045:1,2007-12-06T03:00:00Z,26.2168,-96.4998,1014.33,11111222 
TABS,ioos:station:wmo:42045:1,2007-12-06T03:30:00Z,26.2168,-96.4998,1014.18,11111222 
TABS,ioos:station:wmo:42045:1,2007-12-06T04:00:00Z,26.2168,-96.4998,1014.29,11111222 
TABS,ioos:station:wmo:42045:1,2007-12-06T04:30:00Z,26.2168,-96.4998,1014.3,11111222 
TABS,ioos:station:wmo:42045:1,2007-12-06T05:00:00Z,26.2168,-96.4998,1014.37,11111222 
TABS,ioos:station:wmo:42045:1,2007-12-06T05:30:00Z,26.2168,-96.4998,1014.41,11111222 
TABS,ioos:station:wmo:42045:1,2007-12-06T06:00:00Z,26.2168,-96.4998,1014.23,11111222 
TABS,ioos:station:wmo:42045:1,2007-12-06T06:30:00Z,26.2168,-96.4998,1013.86,11111222 
TABS,ioos:station:wmo:42045:1,2007-12-06T07:00:00Z,26.2168,-96.4998,1013.8,11111222 
TABS,ioos:station:wmo:42045:1,2007-12-06T07:30:00Z,26.2168,-96.4998,1013.83,11111222 
TABS,ioos:station:wmo:42045:1,2007-12-06T08:00:00Z,26.2168,-96.4998,1013.6,11111222 
TABS,ioos:station:wmo:42045:1,2007-12-06T08:30:00Z,26.2168,-96.4998,1013.31,11111222 
TABS,ioos:station:wmo:42045:1,2007-12-06T09:00:00Z,26.2168,-96.4998,1013.63,11111222 
TABS,ioos:station:wmo:42045:1,2007-12-06T09:30:00Z,26.2168,-96.4998,1013.7,11111222 
TABS,ioos:station:wmo:42045:1,2007-12-06T10:00:00Z,26.2168,-96.4998,1013.85,11111222 
TABS,ioos:station:wmo:42045:1,2007-12-06T10:30:00Z,26.2168,-96.4998,1013.73,11111222 
TABS,ioos:station:wmo:42045:1,2007-12-06T11:00:00Z,26.2168,-96.4998,1013.93,11111222 
TABS,ioos:station:wmo:42045:1,2007-12-06T11:30:00Z,26.2168,-96.4998,1014.09,11111222 
TABS,ioos:station:wmo:42045:1,2007-12-06T12:00:00Z,26.2168,-96.4998,1014.35,11111222 
TABS,ioos:station:wmo:42045:1,2007-12-06T12:30:00Z,26.2168,-96.4998,1014.72,11111222 
TABS,ioos:station:wmo:42045:1,2007-12-06T13:00:00Z,26.2168,-96.4998,1014.99,11111222 
TABS,ioos:station:wmo:42045:1,2007-12-06T13:30:00Z,26.2168,-96.4998,1015.29,11111222 
TABS,ioos:station:wmo:42045:1,2007-12-06T14:00:00Z,26.2168,-96.4998,1015.61,11111222 
TABS,ioos:station:wmo:42045:1,2007-12-06T14:30:00Z,26.2168,-96.4998,1015.92,11111222 
TABS,ioos:station:wmo:42045:1,2007-12-06T15:00:00Z,26.2168,-96.4998,1016.27,11111222 
TABS,ioos:station:wmo:42045:1,2007-12-06T15:30:00Z,26.2168,-96.4998,1016.52,11111222 
TABS,ioos:station:wmo:42045:1,2007-12-06T16:00:00Z,26.2168,-96.4998,1016.71,11111222 
TABS,ioos:station:wmo:42045:1,2007-12-06T16:30:00Z,26.2168,-96.4998,1016.43,11111222 
TABS,ioos:station:wmo:42045:1,2007-12-06T17:00:00Z,26.2168,-96.4998,1015.98,11111222 
TABS,ioos:station:wmo:42045:1,2007-12-06T17:30:00Z,26.2168,-96.4998,1015.62,11111222 
TABS,ioos:station:wmo:42045:1,2007-12-06T18:00:00Z,26.2168,-96.4998,1015.47,11111222 
TABS,ioos:station:wmo:42045:1,2007-12-06T18:30:00Z,26.2168,-96.4998,1014.97,11111222 
TABS,ioos:station:wmo:42045:1,2007-12-06T19:00:00Z,26.2168,-96.4998,1014.54,11111222 
TABS,ioos:station:wmo:42045:1,2007-12-06T19:30:00Z,26.2168,-96.4998,1014.03,11111222 
TABS,ioos:station:wmo:42045:1,2007-12-06T20:00:00Z,26.2168,-96.4998,1013.79,11111222 
TABS,ioos:station:wmo:42045:1,2007-12-06T20:30:00Z,26.2168,-96.4998,1013.51,11111222 
TABS,ioos:station:wmo:42045:1,2007-12-06T21:00:00Z,26.2168,-96.4998,1013.55,11111222 
TABS,ioos:station:wmo:42045:1,2007-12-06T21:30:00Z,26.2168,-96.4998,1013.31,11111222 
TABS,ioos:station:wmo:42045:1,2007-12-06T22:00:00Z,26.2168,-96.4998,1013.33,11111222 
TABS,ioos:station:wmo:42045:1,2007-12-06T22:30:00Z,26.2168,-96.4998,1013.53,11111222 
TABS,ioos:station:wmo:42045:1,2007-12-06T23:00:00Z,26.2168,-96.4998,1013.82,11111222 
TABS,ioos:station:wmo:42045:1,2007-12-06T23:30:00Z,26.2168,-96.4998,1013.95,11111222 
TABS,ioos:station:wmo:42045:1,2007-12-07T00:00:00Z,26.2168,-96.4998,1014.27,11111222 
TABS,ioos:station:wmo:42045:1,2007-12-07T00:30:00Z,26.2168,-96.4998,1014.66,11111222 
TABS,ioos:station:wmo:42045:1,2007-12-07T01:00:00Z,26.2168,-96.4998,1015.23,11111222 
TABS,ioos:station:wmo:42045:1,2007-12-07T01:30:00Z,26.2168,-96.4998,1015.0,11111222 
TABS,ioos:station:wmo:42045:1,2007-12-07T02:00:00Z,26.2168,-96.4998,1015.36,11111222 
TABS,ioos:station:wmo:42045:1,2007-12-07T02:30:00Z,26.2168,-96.4998,1015.66,11111222 
TABS,ioos:station:wmo:42045:1,2007-12-07T03:00:00Z,26.2168,-96.4998,1015.73,11111222 
TABS,ioos:station:wmo:42045:1,2007-12-07T03:30:00Z,26.2168,-96.4998,1015.66,11111222 
TABS,ioos:station:wmo:42045:1,2007-12-07T04:00:00Z,26.2168,-96.4998,1015.69,11111222 
TABS,ioos:station:wmo:42045:1,2007-12-07T04:30:00Z,26.2168,-96.4998,1015.94,11111222 
TABS,ioos:station:wmo:42045:1,2007-12-07T05:00:00Z,26.2168,-96.4998,1015.99,11111222 
TABS,ioos:station:wmo:42045:1,2007-12-07T05:30:00Z,26.2168,-96.4998,1015.72,11111222 
TABS,ioos:station:wmo:42045:1,2007-12-07T06:00:00Z,26.2168,-96.4998,1015.48,11111222 
TABS,ioos:station:wmo:42045:1,2007-12-07T06:30:00Z,26.2168,-96.4998,1015.22,11111222 
TABS,ioos:station:wmo:42045:1,2007-12-07T07:00:00Z,26.2168,-96.4998,1015.39,11111222 
TABS,ioos:station:wmo:42045:1,2007-12-07T07:30:00Z,26.2168,-96.4998,1015.23,11111222 
TABS,ioos:station:wmo:42045:1,2007-12-07T08:00:00Z,26.2168,-96.4998,1015.05,11111222 
TABS,ioos:station:wmo:42045:1,2007-12-07T08:30:00Z,26.2168,-96.4998,1014.74,11111222 
TABS,ioos:station:wmo:42045:1,2007-12-07T09:00:00Z,26.2168,-96.4998,1014.61,11111222 
TABS,ioos:station:wmo:42045:1,2007-12-07T09:30:00Z,26.2168,-96.4998,1014.49,11111222 
TABS,ioos:station:wmo:42045:1,2007-12-07T10:00:00Z,26.2168,-96.4998,1014.54,11111222 
TABS,ioos:station:wmo:42045:1,2007-12-07T10:30:00Z,26.2168,-96.4998,1014.36,11111222 
TABS,ioos:station:wmo:42045:1,2007-12-07T11:00:00Z,26.2168,-96.4998,1014.24,11111222 
TABS,ioos:station:wmo:42045:1,2007-12-07T11:30:00Z,26.2168,-96.4998,1014.48,11111222 
TABS,ioos:station:wmo:42045:1,2007-12-07T12:00:00Z,26.2168,-96.4998,1014.64,11111222 
TABS,ioos:station:wmo:42045:1,2007-12-07T12:30:00Z,26.2168,-96.4998,1014.89,11111222 
TABS,ioos:station:wmo:42045:1,2007-12-07T13:00:00Z,26.2168,-96.4998,1015.07,11111222 
TABS,ioos:station:wmo:42045:1,2007-12-07T13:30:00Z,26.2168,-96.4998,1015.18,11111222 
TABS,ioos:station:wmo:42045:1,2007-12-07T14:00:00Z,26.2168,-96.4998,1015.6,11111222 
TABS,ioos:station:wmo:42045:1,2007-12-07T14:30:00Z,26.2168,-96.4998,1015.91,11111222 
TABS,ioos:station:wmo:42045:1,2007-12-07T15:00:00Z,26.2168,-96.4998,1016.01,11111222 
TABS,ioos:station:wmo:42045:1,2007-12-07T15:30:00Z,26.2168,-96.4998,1016.27,11111222 
TABS,ioos:station:wmo:42045:1,2007-12-07T16:00:00Z,26.2168,-96.4998,1016.33,11111222 
TABS,ioos:station:wmo:42045:1,2007-12-07T16:30:00Z,26.2168,-96.4998,1016.08,11111222 
TABS,ioos:station:wmo:42045:1,2007-12-07T17:00:00Z,26.2168,-96.4998,1015.88,11111222 
TABS,ioos:station:wmo:42045:1,2007-12-07T17:30:00Z,26.2168,-96.4998,1015.74,11111222 
TABS,ioos:station:wmo:42045:1,2007-12-07T18:00:00Z,26.2168,-96.4998,1015.52,11111222 
TABS,ioos:station:wmo:42045:1,2007-12-07T18:30:00Z,26.2168,-96.4998,1014.92,11111222 
TABS,ioos:station:wmo:42045:1,2007-12-07T19:00:00Z,26.2168,-96.4998,1014.49,11111222 
TABS,ioos:station:wmo:42045:1,2007-12-07T19:30:00Z,26.2168,-96.4998,1014.2,11111222 
TABS,ioos:station:wmo:42045:1,2007-12-07T20:00:00Z,26.2168,-96.4998,1013.83,11111222 
TABS,ioos:station:wmo:42045:1,2007-12-07T20:30:00Z,26.2168,-96.4998,1013.7,11111222 
TABS,ioos:station:wmo:42045:1,2007-12-07T21:00:00Z,26.2168,-96.4998,1013.55,11111222 
TABS,ioos:station:wmo:42045:1,2007-12-07T21:30:00Z,26.2168,-96.4998,1013.64,11111222 
TABS,ioos:station:wmo:42045:1,2007-12-07T22:00:00Z,26.2168,-96.4998,1013.69,11111222 
TABS,ioos:station:wmo:42045:1,2007-12-07T22:30:00Z,26.2168,-96.4998,1013.8,11111222 
TABS,ioos:station:wmo:42045:1,2007-12-07T23:00:00Z,26.2168,-96.4998,1013.85,11111222 
TABS,ioos:station:wmo:42045:1,2007-12-07T23:30:00Z,26.2168,-96.4998,1013.93,11111222 
TABS,ioos:station:wmo:42045:1,2007-12-08T00:00:00Z,26.2168,-96.4998,1014.03,11111222 
TABS,ioos:station:wmo:42045:1,2007-12-08T00:30:00Z,26.2168,-96.4998,1014.33,11111222 
TABS,ioos:station:wmo:42045:1,2007-12-08T01:00:00Z,26.2168,-96.4998,1014.62,11111222 
TABS,ioos:station:wmo:42045:1,2007-12-08T01:30:00Z,26.2168,-96.4998,1015.0,11111222 
TABS,ioos:station:wmo:42045:1,2007-12-08T02:00:00Z,26.2168,-96.4998,1015.11,11111222 
TABS,ioos:station:wmo:42045:1,2007-12-08T02:30:00Z,26.2168,-96.4998,1015.25,11111222 
TABS,ioos:station:wmo:42045:1,2007-12-08T03:00:00Z,26.2168,-96.4998,1015.46,11111222 
TABS,ioos:station:wmo:42045:1,2007-12-08T03:30:00Z,26.2168,-96.4998,1015.58,11111222 
TABS,ioos:station:wmo:42045:1,2007-12-08T04:00:00Z,26.2168,-96.4998,1015.82,11111222 
TABS,ioos:station:wmo:42045:1,2007-12-08T04:30:00Z,26.2168,-96.4998,1015.78,11111222 
TABS,ioos:station:wmo:42045:1,2007-12-08T05:00:00Z,26.2168,-96.4998,1015.78,11111222 
TABS,ioos:station:wmo:42045:1,2007-12-08T05:30:00Z,26.2168,-96.4998,1015.8,11111222 
TABS,ioos:station:wmo:42045:1,2007-12-08T06:00:00Z,26.2168,-96.4998,1015.68,11111222 
TABS,ioos:station:wmo:42045:1,2007-12-08T06:30:00Z,26.2168,-96.4998,1015.67,11111222 
TABS,ioos:station:wmo:42045:1,2007-12-08T07:00:00Z,26.2168,-96.4998,1015.56,11111222 
TABS,ioos:station:wmo:42045:1,2007-12-08T07:30:00Z,26.2168,-96.4998,1015.48,11111222 
TABS,ioos:station:wmo:42045:1,2007-12-08T08:00:00Z,26.2168,-96.4998,1015.31,11111222 
TABS,ioos:station:wmo:42045:1,2007-12-08T08:30:00Z,26.2168,-96.4998,1015.13,11111222 
TABS,ioos:station:wmo:42045:1,2007-12-08T09:00:00Z,26.2168,-96.4998,1015.06,11111222 
TABS,ioos:station:wmo:42045:1,2007-12-08T09:30:00Z,26.2168,-96.4998,1015.17,11111222 
TABS,ioos:station:wmo:42045:1,2007-12-08T10:00:00Z,26.2168,-96.4998,1015.0,11111222 
TABS,ioos:station:wmo:42045:1,2007-12-08T10:30:00Z,26.2168,-96.4998,1014.99,11111222 
TABS,ioos:station:wmo:42045:1,2007-12-08T11:00:00Z,26.2168,-96.4998,1015.07,11111222 
TABS,ioos:station:wmo:42045:1,2007-12-08T11:30:00Z,26.2168,-96.4998,1015.13,11111222 
TABS,ioos:station:wmo:42045:1,2007-12-08T12:00:00Z,26.2168,-96.4998,1015.26,11111222 
TABS,ioos:station:wmo:42045:1,2007-12-08T12:30:00Z,26.2168,-96.4998,1015.63,11111222 
TABS,ioos:station:wmo:42045:1,2007-12-08T13:00:00Z,26.2168,-96.4998,1016.09,11111222 
TABS,ioos:station:wmo:42045:1,2007-12-08T13:30:00Z,26.2168,-96.4998,1016.49,11111222 
TABS,ioos:station:wmo:42045:1,2007-12-08T14:00:00Z,26.2168,-96.4998,1016.88,11111222 
TABS,ioos:station:wmo:42045:1,2007-12-08T14:30:00Z,26.2168,-96.4998,1017.21,11111222 
TABS,ioos:station:wmo:42045:1,2007-12-08T15:00:00Z,26.2168,-96.4998,1017.45,11111222 
TABS,ioos:station:wmo:42045:1,2007-12-08T15:30:00Z,26.2168,-96.4998,1017.63,11111222 
TABS,ioos:station:wmo:42045:1,2007-12-08T16:00:00Z,26.2168,-96.4998,1017.42,11111222 
TABS,ioos:station:wmo:42045:1,2007-12-08T16:30:00Z,26.2168,-96.4998,1017.36,11111222 
TABS,ioos:station:wmo:42045:1,2007-12-08T17:00:00Z,26.2168,-96.4998,1017.4,11111222 
TABS,ioos:station:wmo:42045:1,2007-12-08T17:30:00Z,26.2168,-96.4998,1017.19,11111222 
TABS,ioos:station:wmo:42045:1,2007-12-08T18:00:00Z,26.2168,-96.4998,1016.69,11111222 
TABS,ioos:station:wmo:42045:1,2007-12-08T18:30:00Z,26.2168,-96.4998,1016.35,11111222 
TABS,ioos:station:wmo:42045:1,2007-12-08T19:00:00Z,26.2168,-96.4998,1015.94,11111222 
TABS,ioos:station:wmo:42045:1,2007-12-08T19:30:00Z,26.2168,-96.4998,1015.57,11111222 
TABS,ioos:station:wmo:42045:1,2007-12-08T20:00:00Z,26.2168,-96.4998,1015.48,11111222 
TABS,ioos:station:wmo:42045:1,2007-12-08T20:30:00Z,26.2168,-96.4998,1015.26,11111222 
TABS,ioos:station:wmo:42045:1,2007-12-08T21:00:00Z,26.2168,-96.4998,1015.2,11111222 
TABS,ioos:station:wmo:42045:1,2007-12-08T21:30:00Z,26.2168,-96.4998,1014.73,11111222 
TABS,ioos:station:wmo:42045:1,2007-12-08T22:00:00Z,26.2168,-96.4998,1014.56,11111222 
TABS,ioos:station:wmo:42045:1,2007-12-08T22:30:00Z,26.2168,-96.4998,1014.47,11111222 
TABS,ioos:station:wmo:42045:1,2007-12-08T23:00:00Z,26.2168,-96.4998,1014.62,11111222 
TABS,ioos:station:wmo:42045:1,2007-12-08T23:30:00Z,26.2168,-96.4998,1014.52,11111222 
TABS,ioos:station:wmo:42045:1,2007-12-09T00:00:00Z,26.2168,-96.4998,1014.58,11111222 
TABS,ioos:station:wmo:42045:1,2007-12-09T00:30:00Z,26.2168,-96.4998,1014.62,11111222 
TABS,ioos:station:wmo:42045:1,2007-12-09T01:00:00Z,26.2168,-96.4998,1015.09,11111222 
TABS,ioos:station:wmo:42045:1,2007-12-09T01:30:00Z,26.2168,-96.4998,1015.27,11111222 
TABS,ioos:station:wmo:42045:1,2007-12-09T02:00:00Z,26.2168,-96.4998,1015.44,11111222 
TABS,ioos:station:wmo:42045:1,2007-12-09T02:30:00Z,26.2168,-96.4998,1015.52,11111222 
TABS,ioos:station:wmo:42045:1,2007-12-09T03:00:00Z,26.2168,-96.4998,1015.77,11111222 
TABS,ioos:station:wmo:42045:1,2007-12-09T03:30:00Z,26.2168,-96.4998,1016.09,11111222 
TABS,ioos:station:wmo:42045:1,2007-12-09T04:00:00Z,26.2168,-96.4998,1016.3,11111222 
TABS,ioos:station:wmo:42045:1,2007-12-09T04:30:00Z,26.2168,-96.4998,1016.4,11111222 
TABS,ioos:station:wmo:42045:1,2007-12-09T05:00:00Z,26.2168,-96.4998,1016.33,11111222 
TABS,ioos:station:wmo:42045:1,2007-12-09T05:30:00Z,26.2168,-96.4998,1016.31,11111222 
TABS,ioos:station:wmo:42045:1,2007-12-09T06:00:00Z,26.2168,-96.4998,1016.4,11111222 
TABS,ioos:station:wmo:42045:1,2007-12-09T06:30:00Z,26.2168,-96.4998,1015.92,11111222 
TABS,ioos:station:wmo:42045:1,2007-12-09T07:00:00Z,26.2168,-96.4998,1016.28,11111222 
TABS,ioos:station:wmo:42045:1,2007-12-09T07:30:00Z,26.2168,-96.4998,1015.96,11111222 
TABS,ioos:station:wmo:42045:1,2007-12-09T08:00:00Z,26.2168,-96.4998,1016.09,11111222 
TABS,ioos:station:wmo:42045:1,2007-12-09T08:30:00Z,26.2168,-96.4998,1015.71,11111222 
TABS,ioos:station:wmo:42045:1,2007-12-09T09:00:00Z,26.2168,-96.4998,1015.65,11111222 
TABS,ioos:station:wmo:42045:1,2007-12-09T09:30:00Z,26.2168,-96.4998,1015.82,11111222 
TABS,ioos:station:wmo:42045:1,2007-12-09T10:00:00Z,26.2168,-96.4998,1015.55,11111222 
TABS,ioos:station:wmo:42045:1,2007-12-09T10:30:00Z,26.2168,-96.4998,1015.64,11111222 
TABS,ioos:station:wmo:42045:1,2007-12-09T11:00:00Z,26.2168,-96.4998,1015.89,11111222 
TABS,ioos:station:wmo:42045:1,2007-12-09T11:30:00Z,26.2168,-96.4998,1016.05,11111222 
TABS,ioos:station:wmo:42045:1,2007-12-09T12:00:00Z,26.2168,-96.4998,1016.23,11111222 
TABS,ioos:station:wmo:42045:1,2007-12-09T12:30:00Z,26.2168,-96.4998,1016.41,11111222 
TABS,ioos:station:wmo:42045:1,2007-12-09T13:00:00Z,26.2168,-96.4998,1016.58,11111222 
TABS,ioos:station:wmo:42045:1,2007-12-09T13:30:00Z,26.2168,-96.4998,1017.0,11111222 
TABS,ioos:station:wmo:42045:1,2007-12-09T14:00:00Z,26.2168,-96.4998,1017.17,11111222 
TABS,ioos:station:wmo:42045:1,2007-12-09T14:30:00Z,26.2168,-96.4998,1017.53,11111222 
TABS,ioos:station:wmo:42045:1,2007-12-09T15:00:00Z,26.2168,-96.4998,1017.81,11111222 
TABS,ioos:station:wmo:42045:1,2007-12-09T15:30:00Z,26.2168,-96.4998,1018.04,11111222 
TABS,ioos:station:wmo:42045:1,2007-12-09T16:00:00Z,26.2168,-96.4998,1018.27,11111222 
TABS,ioos:station:wmo:42045:1,2007-12-09T16:30:00Z,26.2168,-96.4998,1018.09,11111222 
TABS,ioos:station:wmo:42045:1,2007-12-09T17:00:00Z,26.2168,-96.4998,1018.05,11111222 
TABS,ioos:station:wmo:42045:1,2007-12-09T17:30:00Z,26.2168,-96.4998,1017.93,11111222 
TABS,ioos:station:wmo:42045:1,2007-12-09T18:00:00Z,26.2168,-96.4998,1017.44,11111222 
TABS,ioos:station:wmo:42045:1,2007-12-09T18:30:00Z,26.2168,-96.4998,1017.02,11111222 
TABS,ioos:station:wmo:42045:1,2007-12-09T19:00:00Z,26.2168,-96.4998,1016.72,11111222 
TABS,ioos:station:wmo:42045:1,2007-12-09T19:30:00Z,26.2168,-96.4998,1016.27,11111222 
TABS,ioos:station:wmo:42045:1,2007-12-09T20:00:00Z,26.2168,-96.4998,1016.04,11111222 
TABS,ioos:station:wmo:42045:1,2007-12-09T20:30:00Z,26.2168,-96.4998,1015.73,11111222 
TABS,ioos:station:wmo:42045:1,2007-12-09T21:00:00Z,26.2168,-96.4998,1015.62,11111222 
TABS,ioos:station:wmo:42045:1,2007-12-09T21:30:00Z,26.2168,-96.4998,1015.62,11111222 
TABS,ioos:station:wmo:42045:1,2007-12-09T22:00:00Z,26.2168,-96.4998,1015.63,11111222 
TABS,ioos:station:wmo:42045:1,2007-12-09T22:30:00Z,26.2168,-96.4998,1015.83,11111222 
TABS,ioos:station:wmo:42045:1,2007-12-09T23:00:00Z,26.2168,-96.4998,1016.0,11111222 
TABS,ioos:station:wmo:42045:1,2007-12-09T23:30:00Z,26.2168,-96.4998,1016.21,11111222 
TABS,ioos:station:wmo:42045:1,2007-12-10T00:00:00Z,26.2168,-96.4998,1016.3,11111222 
TABS,ioos:station:wmo:42045:1,2007-12-10T00:30:00Z,26.2168,-96.4998,1016.47,11111222 
TABS,ioos:station:wmo:42045:1,2007-12-10T01:00:00Z,26.2168,-96.4998,1016.67,11111222 
TABS,ioos:station:wmo:42045:1,2007-12-10T01:30:00Z,26.2168,-96.4998,1016.99,11111222 
TABS,ioos:station:wmo:42045:1,2007-12-10T02:00:00Z,26.2168,-96.4998,1017.31,11111222 
TABS,ioos:station:wmo:42045:1,2007-12-10T02:30:00Z,26.2168,-96.4998,1017.52,11111222 
TABS,ioos:station:wmo:42045:1,2007-12-10T03:00:00Z,26.2168,-96.4998,1017.73,11111222 
TABS,ioos:station:wmo:42045:1,2007-12-10T03:30:00Z,26.2168,-96.4998,1018.01,11111222 
TABS,ioos:station:wmo:42045:1,2007-12-10T04:00:00Z,26.2168,-96.4998,1018.32,11111222 
TABS,ioos:station:wmo:42045:1,2007-12-10T04:30:00Z,26.2168,-96.4998,1018.38,11111222 
TABS,ioos:station:wmo:42045:1,2007-12-10T05:00:00Z,26.2168,-96.4998,1018.32,11111222 
TABS,ioos:station:wmo:42045:1,2007-12-10T05:30:00Z,26.2168,-96.4998,1018.35,11111222 
TABS,ioos:station:wmo:42045:1,2007-12-10T06:00:00Z,26.2168,-96.4998,1018.19,11111222 
TABS,ioos:station:wmo:42045:1,2007-12-10T06:30:00Z,26.2168,-96.4998,1018.28,11111222 
TABS,ioos:station:wmo:42045:1,2007-12-10T07:00:00Z,26.2168,-96.4998,1018.12,11111222 
TABS,ioos:station:wmo:42045:1,2007-12-10T07:30:00Z,26.2168,-96.4998,1018.07,11111222 
TABS,ioos:station:wmo:42045:1,2007-12-10T08:00:00Z,26.2168,-96.4998,1017.91,11111222 
TABS,ioos:station:wmo:42045:1,2007-12-10T08:30:00Z,26.2168,-96.4998,1017.81,11111222 
TABS,ioos:station:wmo:42045:1,2007-12-10T09:00:00Z,26.2168,-96.4998,1017.71,11111222 
TABS,ioos:station:wmo:42045:1,2007-12-10T09:30:00Z,26.2168,-96.4998,1017.71,11111222 
TABS,ioos:station:wmo:42045:1,2007-12-10T10:00:00Z,26.2168,-96.4998,1017.83,11111222 
TABS,ioos:station:wmo:42045:1,2007-12-10T10:30:00Z,26.2168,-96.4998,1017.9,11111222 
TABS,ioos:station:wmo:42045:1,2007-12-10T11:00:00Z,26.2168,-96.4998,1017.98,11111222 
TABS,ioos:station:wmo:42045:1,2007-12-10T11:30:00Z,26.2168,-96.4998,1018.01,11111222 
TABS,ioos:station:wmo:42045:1,2007-12-10T12:00:00Z,26.2168,-96.4998,1018.25,11111222 
TABS,ioos:station:wmo:42045:1,2007-12-10T12:30:00Z,26.2168,-96.4998,1018.51,11111222 
TABS,ioos:station:wmo:42045:1,2007-12-10T13:00:00Z,26.2168,-96.4998,1018.63,11111222 
TABS,ioos:station:wmo:42045:1,2007-12-10T13:30:00Z,26.2168,-96.4998,1018.88,11111222 
TABS,ioos:station:wmo:42045:1,2007-12-10T14:00:00Z,26.2168,-96.4998,1018.99,11111222 